UNS100 SCCI-SCEL

Flight info

Callsign UNS100
Flight time N/A
Altitude 36000
Route SIRUN4A SIRUN UQ802 EROLO EROLO6E
Aircraft B720/M-SDFGHRWY/C

Departure

Time 2026-04-17 15:11
Airport President Carlos Ibáñez International Airport (SCCI)

Arrival

Time N/A
Airport Comodoro Arturo Merino Benítez International Airport (SCEL)
Time Latitude Longitude Altitude Speed Heading
2026-04-17 14:57 -53.00454 -70.84591 134 ft 0 kts 222°
2026-04-17 15:05 -53.00440 -70.84644 134 ft 14 kts 356°
2026-04-17 15:06 -53.00368 -70.84637 134 ft 9 kts 332°
2026-04-17 15:06 -53.00312 -70.84698 134 ft 9 kts 327°
2026-04-17 15:06 -53.00255 -70.84695 133 ft 10 kts 69°
2026-04-17 15:06 -53.00251 -70.84553 133 ft 12 kts 90°
2026-04-17 15:07 -53.00248 -70.84398 133 ft 14 kts 87°
2026-04-17 15:07 -53.00246 -70.84219 131 ft 16 kts 92°
2026-04-17 15:07 -53.00244 -70.84023 131 ft 17 kts 88°
2026-04-17 15:07 -53.00241 -70.83820 129 ft 18 kts 88°
2026-04-17 15:08 -53.00239 -70.83601 129 ft 18 kts 89°
2026-04-17 15:08 -53.00234 -70.83382 128 ft 18 kts 88°
2026-04-17 15:08 -53.00230 -70.83194 128 ft 15 kts 88°
2026-04-17 15:08 -53.00197 -70.83040 125 ft 15 kts
2026-04-17 15:09 -53.00095 -70.83041 125 ft 14 kts 356°
2026-04-17 15:09 -53.00058 -70.83142 125 ft 10 kts 270°
2026-04-17 15:09 -53.00059 -70.83260 126 ft 10 kts 267°
2026-04-17 15:09 -53.00061 -70.83373 127 ft 9 kts 269°
2026-04-17 15:10 -53.00061 -70.83411 127 ft 0 kts 269°
2026-04-17 15:10 -53.00062 -70.83431 128 ft 19 kts 269°
2026-04-17 15:10 -53.00075 -70.84299 132 ft 125 kts 268°
2026-04-17 15:11 -53.00285 -70.88429 899 ft 218 kts 263°
2026-04-17 15:11 -53.00576 -70.90991 1352 ft 238 kts 263°
2026-04-17 15:11 -53.00900 -70.93735 1928 ft 251 kts 263°
2026-04-17 15:11 -53.01254 -70.96542 2545 ft 250 kts 263°
2026-04-17 15:12 -53.01462 -70.99408 3120 ft 248 kts 280°
2026-04-17 15:12 -53.00752 -71.01981 3309 ft 243 kts 316°
2026-04-17 15:12 -52.99321 -71.03278 3340 ft 237 kts 343°
2026-04-17 15:12 -52.97876 -71.04546 3450 ft 237 kts 314°
2026-04-17 15:13 -52.96740 -71.06511 3785 ft 239 kts 316°
2026-04-17 15:13 -52.95553 -71.08442 4139 ft 239 kts 317°
2026-04-17 15:13 -52.94351 -71.10350 4497 ft 238 kts 316°
2026-04-17 15:13 -52.93137 -71.12241 4857 ft 239 kts 317°
2026-04-17 15:14 -52.91914 -71.14117 5219 ft 242 kts 317°
2026-04-17 15:14 -52.90685 -71.15974 5583 ft 239 kts 316°
2026-04-17 15:14 -52.89458 -71.17815 5949 ft 237 kts 316°
2026-04-17 15:14 -52.88234 -71.19637 6313 ft 240 kts 317°
2026-04-17 15:15 -52.86987 -71.21476 6807 ft 240 kts 316°
2026-04-17 15:15 -52.85743 -71.23304 7368 ft 241 kts 316°
2026-04-17 15:15 -52.84500 -71.25120 7932 ft 242 kts 317°
2026-04-17 15:15 -52.83226 -71.26972 8515 ft 243 kts 317°
2026-04-17 15:16 -52.81966 -71.28799 9093 ft 244 kts 317°
2026-04-17 15:16 -52.80686 -71.30650 9683 ft 244 kts 317°
2026-04-17 15:16 -52.79409 -71.32490 10281 ft 246 kts 317°
2026-04-17 15:16 -52.78048 -71.34450 10983 ft 281 kts 317°
2026-04-17 15:17 -52.76501 -71.36669 11904 ft 302 kts 317°
2026-04-17 15:17 -52.74894 -71.38972 12886 ft 307 kts 317°
2026-04-17 15:17 -52.73280 -71.41277 13883 ft 310 kts 317°
2026-04-17 15:17 -52.71671 -71.43575 14891 ft 312 kts 317°
2026-04-17 15:18 -52.70020 -71.45929 15933 ft 315 kts 318°
2026-04-17 15:18 -52.68384 -71.48255 16977 ft 320 kts 318°
2026-04-17 15:18 -52.66705 -71.50641 18058 ft 322 kts 318°
2026-04-17 15:18 -52.65010 -71.53045 19164 ft 328 kts 319°
2026-04-17 15:19 -52.63279 -71.55496 20276 ft 331 kts 319°
2026-04-17 15:19 -52.61550 -71.57938 21406 ft 333 kts 319°
2026-04-17 15:19 -52.59778 -71.60442 22557 ft 338 kts 318°
2026-04-17 15:19 -52.57978 -71.62986 23742 ft 342 kts 317°
2026-04-17 15:20 -52.56167 -71.65540 24946 ft 349 kts 317°
2026-04-17 15:20 -52.54345 -71.68108 26143 ft 354 kts 318°
2026-04-17 15:20 -52.52482 -71.70734 27334 ft 359 kts 319°
2026-04-17 15:20 -52.50561 -71.73431 28271 ft 370 kts 318°
2026-04-17 15:21 -52.48607 -71.76180 29092 ft 377 kts 319°
2026-04-17 15:21 -52.46584 -71.79018 29751 ft 384 kts 319°
2026-04-17 15:21 -52.44544 -71.81873 30158 ft 388 kts 319°
2026-04-17 15:21 -52.42499 -71.84733 30552 ft 390 kts 319°
2026-04-17 15:22 -52.40430 -71.87622 30942 ft 393 kts 319°
2026-04-17 15:22 -52.38363 -71.90508 31270 ft 397 kts 319°
2026-04-17 15:22 -52.36232 -71.93481 31583 ft 405 kts 319°
2026-04-17 15:22 -52.34070 -71.96487 31903 ft 411 kts 319°
2026-04-17 15:23 -52.31916 -71.99484 32209 ft 413 kts 320°
2026-04-17 15:23 -52.29711 -72.02541 32503 ft 420 kts 320°
2026-04-17 15:23 -52.27491 -72.05616 32810 ft 424 kts 320°
2026-04-17 15:23 -52.25220 -72.08759 33129 ft 431 kts 320°
2026-04-17 15:24 -52.22931 -72.11926 33490 ft 436 kts 320°
2026-04-17 15:24 -52.20632 -72.15098 33815 ft 442 kts 320°
2026-04-17 15:24 -52.18294 -72.18319 34268 ft 444 kts 320°
2026-04-17 15:24 -52.15935 -72.21564 34724 ft 447 kts 320°
2026-04-17 15:25 -52.13554 -72.24837 35155 ft 452 kts 320°
2026-04-17 15:25 -52.11141 -72.28149 35607 ft 454 kts 320°
2026-04-17 15:25 -52.08749 -72.31429 36019 ft 459 kts 320°
2026-04-17 15:25 -52.06319 -72.34754 36471 ft 461 kts 320°
2026-04-17 15:26 -52.03848 -72.38132 36895 ft 463 kts 320°
2026-04-17 15:26 -52.01370 -72.41515 36762 ft 469 kts 321°
2026-04-17 15:26 -51.98887 -72.44895 36162 ft 467 kts 321°
2026-04-17 15:26 -51.96417 -72.48251 35567 ft 461 kts 320°
2026-04-17 15:27 -51.94022 -72.51506 35554 ft 451 kts 320°
2026-04-17 15:27 -51.89177 -72.58075 35590 ft 459 kts 320°
2026-04-17 15:28 -51.84310 -72.64638 35602 ft 458 kts 321°
2026-04-17 15:28 -51.78904 -72.70158 35590 ft 460 kts 328°
2026-04-17 15:29 -51.73464 -72.75448 35609 ft 460 kts 328°
2026-04-17 15:29 -51.67979 -72.80730 35614 ft 460 kts 328°
2026-04-17 15:30 -51.62493 -72.85980 35612 ft 460 kts 329°
2026-04-17 15:30 -51.57024 -72.91195 35599 ft 460 kts 329°
2026-04-17 15:31 -51.51503 -72.96439 35604 ft 464 kts 328°
2026-04-17 15:31 -51.45972 -73.01678 35637 ft 466 kts 329°
2026-04-17 15:32 -51.40402 -73.06939 35607 ft 465 kts 329°
2026-04-17 15:32 -51.34876 -73.12141 35594 ft 461 kts 328°
2026-04-17 15:33 -51.29337 -73.17342 35599 ft 462 kts 329°
2026-04-17 15:33 -51.23814 -73.22512 35596 ft 462 kts 328°
2026-04-17 15:34 -51.18262 -73.27694 35591 ft 465 kts 328°
2026-04-17 15:34 -51.12710 -73.32863 35565 ft 463 kts 328°
2026-04-17 15:35 -51.07211 -73.37968 35563 ft 464 kts 328°
2026-04-17 15:35 -51.01693 -73.43077 35521 ft 462 kts 328°
2026-04-17 15:36 -50.96134 -73.48210 35508 ft 461 kts 328°
2026-04-17 15:36 -50.90631 -73.53272 35491 ft 458 kts 327°
2026-04-17 15:37 -50.85127 -73.58331 35546 ft 458 kts 327°
2026-04-17 15:37 -50.79664 -73.63330 35584 ft 456 kts 327°
2026-04-17 15:38 -50.74174 -73.68343 35617 ft 461 kts 328°
2026-04-17 15:38 -50.68647 -73.73381 35621 ft 458 kts 328°
2026-04-17 15:39 -50.63161 -73.78359 35646 ft 458 kts 328°
2026-04-17 15:39 -50.57676 -73.83325 35654 ft 458 kts 328°
2026-04-17 15:40 -50.52198 -73.88273 35639 ft 458 kts 327°
2026-04-17 15:40 -50.46729 -73.93199 35652 ft 454 kts 328°
2026-04-17 15:41 -50.41245 -73.98126 35639 ft 458 kts 327°
2026-04-17 15:41 -50.35269 -74.01450 35683 ft 469 kts 348°
2026-04-17 15:42 -50.28696 -74.01387 35687 ft 476 kts 356°
2026-04-17 15:42 -50.22111 -74.00867 35698 ft 475 kts 357°
2026-04-17 15:43 -50.15468 -74.00240 35700 ft 477 kts 357°
2026-04-17 15:43 -50.08879 -73.99571 35691 ft 478 kts 357°
2026-04-17 15:44 -50.02224 -73.98877 35693 ft 482 kts 357°
2026-04-17 15:44 -49.95538 -73.98175 35696 ft 479 kts 357°
2026-04-17 15:45 -49.88980 -73.97484 35683 ft 475 kts 358°
2026-04-17 15:45 -49.82351 -73.96788 35677 ft 477 kts 357°
2026-04-17 15:46 -49.75770 -73.96096 35666 ft 475 kts 357°
2026-04-17 15:46 -49.69194 -73.95403 35663 ft 478 kts 357°
2026-04-17 15:47 -49.62587 -73.94717 35672 ft 478 kts 357°
2026-04-17 15:47 -49.56017 -73.94030 35674 ft 478 kts 357°
2026-04-17 15:48 -49.49405 -73.93343 35689 ft 477 kts 356°
2026-04-17 15:48 -49.42809 -73.92658 35702 ft 476 kts 357°
2026-04-17 15:49 -49.36182 -73.91973 35700 ft 479 kts 357°
2026-04-17 15:49 -49.29570 -73.91292 35705 ft 477 kts 357°
2026-04-17 15:50 -49.22989 -73.90614 35698 ft 477 kts 357°
2026-04-17 15:50 -49.16399 -73.89938 35693 ft 474 kts 356°
2026-04-17 15:51 -49.09815 -73.89264 35693 ft 474 kts 357°
2026-04-17 15:51 -49.03195 -73.88588 35672 ft 476 kts 356°
2026-04-17 15:52 -48.96604 -73.87919 35668 ft 478 kts 357°
2026-04-17 15:52 -48.90022 -73.87248 35670 ft 477 kts 357°
2026-04-17 15:53 -48.83435 -73.86582 35690 ft 476 kts 357°
2026-04-17 15:53 -48.76849 -73.85917 35683 ft 474 kts 357°
2026-04-17 15:54 -48.70257 -73.85253 35676 ft 478 kts 357°
2026-04-17 15:54 -48.63685 -73.84592 35686 ft 474 kts 357°
2026-04-17 15:55 -48.57121 -73.83934 35690 ft 473 kts 357°
2026-04-17 15:55 -48.50518 -73.83275 35698 ft 473 kts 357°
2026-04-17 15:56 -48.43943 -73.82619 35695 ft 473 kts 356°
2026-04-17 15:56 -48.37382 -73.81966 35692 ft 476 kts 356°
2026-04-17 15:57 -48.30758 -73.81310 35697 ft 475 kts 357°
2026-04-17 15:57 -48.24173 -73.80657 35705 ft 476 kts 356°
2026-04-17 15:58 -48.17608 -73.80012 35726 ft 477 kts 357°
2026-04-17 15:58 -48.11056 -73.79368 35759 ft 477 kts 357°
2026-04-17 15:59 -48.04459 -73.78722 35775 ft 473 kts 357°
2026-04-17 15:59 -47.97881 -73.78077 35801 ft 474 kts 357°
2026-04-17 16:00 -47.91320 -73.77436 35801 ft 474 kts 357°
2026-04-17 16:00 -47.84742 -73.76794 35814 ft 475 kts 357°
2026-04-17 16:01 -47.78170 -73.76155 35818 ft 475 kts 357°
2026-04-17 16:01 -47.71599 -73.75519 35822 ft 474 kts 357°
2026-04-17 16:02 -47.64983 -73.74879 35810 ft 475 kts 357°
2026-04-17 16:02 -47.58413 -73.74246 35817 ft 474 kts 357°
2026-04-17 16:03 -47.51825 -73.73614 35807 ft 476 kts 357°
2026-04-17 16:03 -47.45254 -73.72982 35800 ft 476 kts 357°
2026-04-17 16:04 -47.38672 -73.72353 35773 ft 474 kts 357°
2026-04-17 16:04 -47.32082 -73.71723 35750 ft 474 kts 357°
2026-04-17 16:05 -47.25510 -73.71097 35718 ft 473 kts 357°
2026-04-17 16:05 -47.18930 -73.70473 35698 ft 477 kts 357°
2026-04-17 16:06 -47.12339 -73.69849 35703 ft 476 kts 357°
2026-04-17 16:06 -47.05822 -73.69233 35713 ft 473 kts 357°
2026-04-17 16:07 -46.99236 -73.68611 35724 ft 476 kts 357°
2026-04-17 16:07 -46.92651 -73.67992 35724 ft 476 kts 358°
2026-04-17 16:08 -46.86069 -73.67374 35728 ft 476 kts 357°
2026-04-17 16:08 -46.79507 -73.66760 35729 ft 475 kts 357°
2026-04-17 16:09 -46.72909 -73.66143 35720 ft 479 kts 357°
2026-04-17 16:09 -46.66322 -73.65530 35751 ft 479 kts 357°
2026-04-17 16:10 -46.59748 -73.64919 35776 ft 477 kts 357°
2026-04-17 16:10 -46.53131 -73.64304 35818 ft 479 kts 357°
2026-04-17 16:11 -46.46558 -73.63699 35849 ft 478 kts 357°
2026-04-17 16:11 -46.39909 -73.63084 35854 ft 478 kts 357°
2026-04-17 16:12 -46.33319 -73.62479 35867 ft 476 kts 357°
2026-04-17 16:12 -46.26703 -73.61872 35872 ft 479 kts 357°
2026-04-17 16:13 -46.20058 -73.61264 35882 ft 480 kts 357°
2026-04-17 16:13 -46.13444 -73.60659 35874 ft 477 kts 357°
2026-04-17 16:14 -46.03494 -73.59753 35871 ft 479 kts 357°
2026-04-17 16:14 -45.96817 -73.59146 35870 ft 480 kts 357°
2026-04-17 16:15 -45.90198 -73.58547 35888 ft 482 kts 357°
2026-04-17 16:15 -45.83516 -73.57945 35907 ft 481 kts 357°
2026-04-17 16:16 -45.76839 -73.57341 35913 ft 483 kts 357°
2026-04-17 16:16 -45.70161 -73.56741 35916 ft 481 kts 357°
2026-04-17 16:17 -45.63470 -73.56141 35924 ft 481 kts 357°
2026-04-17 16:17 -45.56801 -73.55545 35927 ft 484 kts 357°
2026-04-17 16:18 -45.50101 -73.54945 35927 ft 484 kts 357°
2026-04-17 16:18 -45.43389 -73.54348 35936 ft 484 kts 357°
2026-04-17 16:19 -45.36679 -73.53751 35930 ft 484 kts 357°
2026-04-17 16:19 -45.29982 -73.53158 35940 ft 486 kts 357°
2026-04-17 16:20 -45.23279 -73.52566 35943 ft 486 kts 356°
2026-04-17 16:20 -45.16562 -73.51973 35944 ft 484 kts 356°
2026-04-17 16:21 -45.09851 -73.51121 35960 ft 487 kts 358°
2026-04-17 16:21 -45.03120 -73.50331 35966 ft 486 kts 358°
2026-04-17 16:22 -44.96358 -73.49518 35960 ft 486 kts 358°
2026-04-17 16:22 -44.89637 -73.48700 35957 ft 487 kts 358°
2026-04-17 16:23 -44.82897 -73.47880 35963 ft 487 kts 358°
2026-04-17 16:23 -44.76165 -73.47063 35965 ft 489 kts 358°
2026-04-17 16:24 -44.69397 -73.46240 35968 ft 489 kts 358°
2026-04-17 16:24 -44.62627 -73.45418 35974 ft 490 kts 358°
2026-04-17 16:25 -44.55856 -73.44599 35974 ft 489 kts 358°
2026-04-17 16:25 -44.49085 -73.43781 35978 ft 489 kts 358°
2026-04-17 16:26 -44.42329 -73.42967 35981 ft 491 kts 358°
2026-04-17 16:26 -44.35539 -73.42152 35977 ft 491 kts 358°
2026-04-17 16:27 -44.28724 -73.41335 35988 ft 491 kts 358°
2026-04-17 16:27 -44.21962 -73.40525 35988 ft 490 kts 358°
2026-04-17 16:28 -44.15160 -73.39714 36005 ft 490 kts 358°
2026-04-17 16:28 -44.08333 -73.38902 35999 ft 494 kts 358°
2026-04-17 16:29 -44.01513 -73.38093 36004 ft 494 kts 358°
2026-04-17 16:29 -43.94694 -73.37283 36008 ft 492 kts 358°
2026-04-17 16:30 -43.87886 -73.36479 36016 ft 495 kts 358°
2026-04-17 16:30 -43.81030 -73.35670 36018 ft 493 kts 358°
2026-04-17 16:31 -43.74216 -73.34868 36011 ft 492 kts 357°
2026-04-17 16:31 -43.67394 -73.34068 35995 ft 494 kts 357°
2026-04-17 16:32 -43.60569 -73.33268 35998 ft 493 kts 357°
2026-04-17 16:32 -43.53730 -73.32469 36000 ft 495 kts 356°
2026-04-17 16:33 -43.46874 -73.31669 36001 ft 493 kts 357°
2026-04-17 16:33 -43.40004 -73.30871 36011 ft 494 kts 356°
2026-04-17 16:34 -43.33158 -73.30075 36002 ft 496 kts 357°
2026-04-17 16:34 -43.26263 -73.29276 36008 ft 497 kts 357°
2026-04-17 16:35 -43.19404 -73.28484 36003 ft 496 kts 356°
2026-04-17 16:35 -43.12524 -73.27690 36008 ft 499 kts 356°
2026-04-17 16:36 -43.05656 -73.26901 36006 ft 496 kts 356°
2026-04-17 16:36 -42.98743 -73.26109 36005 ft 498 kts 357°
2026-04-17 16:37 -42.91861 -73.25320 36010 ft 500 kts 356°
2026-04-17 16:37 -42.88378 -73.24921 35801 ft 498 kts 356°
2026-04-17 16:37 -42.84930 -73.24529 36031 ft 504 kts 357°
2026-04-17 16:38 -42.77986 -73.23737 36020 ft 503 kts 357°
2026-04-17 16:38 -42.71024 -73.22945 36022 ft 502 kts 357°
2026-04-17 16:39 -42.64043 -73.22153 36022 ft 503 kts 357°
2026-04-17 16:39 -42.57093 -73.21365 36029 ft 504 kts 357°
2026-04-17 16:40 -42.50117 -73.20576 36023 ft 503 kts 356°
2026-04-17 16:40 -42.43123 -73.19788 36033 ft 505 kts 356°
2026-04-17 16:41 -42.36124 -73.19002 36041 ft 507 kts 356°
2026-04-17 16:41 -42.29111 -73.18214 36040 ft 505 kts 356°
2026-04-17 16:42 -42.22068 -73.17426 36046 ft 509 kts 356°
2026-04-17 16:42 -42.15049 -73.16641 36044 ft 508 kts 356°
2026-04-17 16:43 -42.07899 -73.15844 36046 ft 509 kts 356°
2026-04-17 16:43 -42.00793 -73.15054 36043 ft 508 kts 356°
2026-04-17 16:44 -41.93745 -73.14272 36047 ft 510 kts 356°
2026-04-17 16:44 -41.86706 -73.13492 36054 ft 508 kts 356°
2026-04-17 16:45 -41.79652 -73.12714 36048 ft 510 kts 356°
2026-04-17 16:45 -41.72582 -73.11934 36056 ft 511 kts 356°
2026-04-17 16:46 -41.65481 -73.11153 36042 ft 509 kts 356°
2026-04-17 16:46 -41.58431 -73.10378 36041 ft 511 kts 356°
2026-04-17 16:47 -41.51315 -73.09600 36051 ft 511 kts 356°
2026-04-17 16:47 -41.44228 -73.08826 36052 ft 512 kts 356°
2026-04-17 16:48 -41.37139 -73.07632 36058 ft 519 kts 359°
2026-04-17 16:48 -41.29947 -73.06327 36055 ft 518 kts 359°
2026-04-17 16:49 -41.22807 -73.05024 36047 ft 519 kts 359°
2026-04-17 16:49 -41.15694 -73.03722 36058 ft 522 kts 359°
2026-04-17 16:50 -41.08532 -73.02412 36054 ft 521 kts 359°
2026-04-17 16:50 -41.01349 -73.01100 36053 ft 518 kts 359°
2026-04-17 16:51 -40.94243 -72.99806 36053 ft 519 kts 359°
2026-04-17 16:51 -40.87049 -72.98499 36044 ft 522 kts 359°
2026-04-17 16:52 -40.79867 -72.97195 36055 ft 521 kts 359°
2026-04-17 16:52 -40.72705 -72.95901 36049 ft 521 kts 359°
2026-04-17 16:53 -40.65527 -72.94603 36068 ft 524 kts 358°
2026-04-17 16:53 -40.58336 -72.93308 36058 ft 524 kts 358°
2026-04-17 16:54 -40.51133 -72.92012 36086 ft 522 kts 358°
2026-04-17 16:54 -40.43932 -72.90723 36051 ft 524 kts 358°
2026-04-17 16:55 -40.36717 -72.89430 36061 ft 526 kts 358°
2026-04-17 16:55 -40.29488 -72.88137 36068 ft 526 kts 358°
2026-04-17 16:56 -40.22243 -72.86848 36069 ft 529 kts 358°
2026-04-17 16:56 -40.14980 -72.85555 36085 ft 528 kts 358°
2026-04-17 16:57 -40.07716 -72.84264 36072 ft 526 kts 358°
2026-04-17 16:57 -40.00452 -72.82978 36075 ft 528 kts 357°
2026-04-17 16:58 -39.93189 -72.81695 36075 ft 525 kts 357°
2026-04-17 16:58 -39.85885 -72.80409 36084 ft 530 kts 357°
2026-04-17 16:59 -39.78638 -72.79132 36078 ft 525 kts 357°
2026-04-17 16:59 -39.71366 -72.77859 36085 ft 529 kts 357°
2026-04-17 17:00 -39.64050 -72.76574 36082 ft 529 kts 357°
2026-04-17 17:00 -39.56804 -72.75307 36081 ft 529 kts 357°
2026-04-17 17:01 -39.49477 -72.74030 36080 ft 529 kts 357°
2026-04-17 17:01 -39.42239 -72.72767 36085 ft 525 kts 357°
2026-04-17 17:02 -39.34902 -72.71494 36084 ft 531 kts 357°
2026-04-17 17:02 -39.27638 -72.70232 36083 ft 528 kts 357°
2026-04-17 17:03 -39.20334 -72.68971 36085 ft 534 kts 357°
2026-04-17 17:03 -39.13007 -72.67704 36087 ft 528 kts 357°
2026-04-17 17:04 -39.05690 -72.66445 36088 ft 532 kts 357°
2026-04-17 17:04 -38.98330 -72.65179 36089 ft 533 kts 357°
2026-04-17 17:05 -38.91036 -72.63922 36088 ft 534 kts 358°
2026-04-17 17:05 -38.83718 -72.61793 36089 ft 541 kts
2026-04-17 17:06 -38.76390 -72.59606 36086 ft 544 kts
2026-04-17 17:06 -38.69028 -72.57385 36085 ft 545 kts
2026-04-17 17:07 -38.61644 -72.55151 36083 ft 545 kts
2026-04-17 17:07 -38.54257 -72.52919 36088 ft 545 kts
2026-04-17 17:08 -38.46896 -72.50699 36087 ft 545 kts
2026-04-17 17:08 -38.39570 -72.48490 36084 ft 541 kts
2026-04-17 17:09 -38.32178 -72.46269 36083 ft 542 kts
2026-04-17 17:09 -38.24862 -72.44077 36085 ft 546 kts
2026-04-17 17:10 -38.17477 -72.41871 36088 ft 546 kts
2026-04-17 17:10 -38.10123 -72.39672 36080 ft 546 kts
2026-04-17 17:11 -38.02738 -72.37470 36078 ft 546 kts
2026-04-17 17:11 -37.95321 -72.35264 36084 ft 545 kts
2026-04-17 17:12 -37.87944 -72.33075 36058 ft 545 kts
2026-04-17 17:12 -37.80537 -72.30883 36056 ft 547 kts
2026-04-17 17:13 -37.73175 -72.28708 36057 ft 549 kts
2026-04-17 17:13 -37.65794 -72.26530 36061 ft 550 kts
2026-04-17 17:14 -37.58347 -72.24338 36057 ft 549 kts
2026-04-17 17:15 -37.47231 -72.21074 36060 ft 547 kts
2026-04-17 17:15 -37.39861 -72.18915 36060 ft 546 kts
2026-04-17 17:16 -37.32413 -72.16738 36062 ft 547 kts
2026-04-17 17:16 -37.24979 -72.14570 36313 ft 550 kts
2026-04-17 17:16 -37.21263 -72.13487 36029 ft 545 kts
2026-04-17 17:17 -37.17614 -72.12425 36073 ft 543 kts
2026-04-17 17:17 -37.10212 -72.10277 36267 ft 549 kts
2026-04-17 17:17 -37.06470 -72.09191 36034 ft 548 kts
2026-04-17 17:18 -37.02789 -72.08122 36074 ft 543 kts
2026-04-17 17:18 -36.95417 -72.05991 36067 ft 546 kts
2026-04-17 17:19 -36.88043 -72.03863 36065 ft 549 kts
2026-04-17 17:19 -36.80598 -72.01715 36063 ft 546 kts
2026-04-17 17:20 -36.73209 -71.99590 36060 ft 547 kts
2026-04-17 17:20 -36.65790 -71.97462 36060 ft 547 kts
2026-04-17 17:21 -36.58359 -71.95332 36059 ft 549 kts
2026-04-17 17:21 -36.50968 -71.93218 36059 ft 545 kts
2026-04-17 17:22 -36.43581 -71.91112 36059 ft 549 kts
2026-04-17 17:22 -36.36170 -71.89001 36060 ft 545 kts
2026-04-17 17:23 -36.28646 -71.86863 36059 ft 549 kts
2026-04-17 17:23 -36.21215 -71.84756 36060 ft 549 kts
2026-04-17 17:24 -36.13787 -71.82652 36060 ft 548 kts
2026-04-17 17:24 -36.06346 -71.80547 36061 ft 547 kts
2026-04-17 17:25 -35.98951 -71.78463 36063 ft 549 kts
2026-04-17 17:25 -35.91495 -71.76366 36062 ft 548 kts
2026-04-17 17:25 -35.87763 -71.75314 35806 ft 546 kts
2026-04-17 17:26 -35.84125 -71.74289 35276 ft 530 kts
2026-04-17 17:26 -35.80557 -71.73286 34734 ft 520 kts
2026-04-17 17:26 -35.77063 -71.72307 34204 ft 514 kts
2026-04-17 17:26 -35.73579 -71.71333 33677 ft 512 kts
2026-04-17 17:27 -35.70150 -71.70376 33205 ft 511 kts
2026-04-17 17:27 -35.66669 -71.69402 32738 ft 507 kts
2026-04-17 17:27 -35.63295 -71.68458 32285 ft 501 kts
2026-04-17 17:27 -35.59890 -71.67508 31826 ft 498 kts
2026-04-17 17:28 -35.56542 -71.66576 31379 ft 495 kts
2026-04-17 17:28 -35.53173 -71.65638 30931 ft 492 kts
2026-04-17 17:28 -35.49868 -71.64719 30495 ft 489 kts
2026-04-17 17:28 -35.46557 -71.63796 30059 ft 487 kts
2026-04-17 17:29 -35.43270 -71.62837 29624 ft 482 kts
2026-04-17 17:29 -35.40057 -71.61910 29206 ft 477 kts
2026-04-17 17:29 -35.36816 -71.60979 28783 ft 474 kts
2026-04-17 17:29 -35.33643 -71.60064 28374 ft 471 kts
2026-04-17 17:30 -35.30454 -71.59145 27878 ft 467 kts
2026-04-17 17:30 -35.27336 -71.58247 27372 ft 463 kts
2026-04-17 17:30 -35.24186 -71.57339 26868 ft 456 kts
2026-04-17 17:30 -35.21125 -71.56458 26364 ft 452 kts
2026-04-17 17:31 -35.18109 -71.55592 25864 ft 447 kts
2026-04-17 17:31 -35.15082 -71.54722 25363 ft 442 kts
2026-04-17 17:31 -35.12106 -71.53866 24865 ft 436 kts
2026-04-17 17:31 -35.09157 -71.53019 24366 ft 432 kts
2026-04-17 17:32 -35.06282 -71.52195 23873 ft 428 kts
2026-04-17 17:32 -35.03384 -71.51364 23373 ft 425 kts
2026-04-17 17:32 -35.00524 -71.50545 22882 ft 420 kts
2026-04-17 17:32 -34.97692 -71.49734 22402 ft 415 kts
2026-04-17 17:33 -34.94890 -71.48935 21921 ft 413 kts
2026-04-17 17:33 -34.92135 -71.48148 21451 ft 409 kts
2026-04-17 17:33 -34.89370 -71.47357 20975 ft 405 kts
2026-04-17 17:33 -34.86638 -71.46577 20512 ft 402 kts
2026-04-17 17:34 -34.83926 -71.45804 20048 ft 400 kts
2026-04-17 17:34 -34.81199 -71.45026 19578 ft 396 kts
2026-04-17 17:34 -34.78531 -71.44266 19115 ft 393 kts
2026-04-17 17:34 -34.75885 -71.43512 18656 ft 389 kts
2026-04-17 17:35 -34.73262 -71.42767 18186 ft 388 kts
2026-04-17 17:35 -34.70664 -71.42029 17720 ft 385 kts
2026-04-17 17:35 -34.68061 -71.41287 17267 ft 380 kts
2026-04-17 17:35 -34.65521 -71.40565 16814 ft 374 kts
2026-04-17 17:36 -34.63039 -71.39564 16339 ft 373 kts 19°
2026-04-17 17:36 -34.60670 -71.38414 15894 ft 366 kts 18°
2026-04-17 17:36 -34.58344 -71.37286 15452 ft 360 kts 18°
2026-04-17 17:36 -34.56030 -71.36157 15532 ft 355 kts 18°
2026-04-17 17:37 -34.53710 -71.35024 15552 ft 361 kts 18°
2026-04-17 17:37 -34.51382 -71.33883 15525 ft 359 kts 18°
2026-04-17 17:37 -34.49083 -71.32755 15535 ft 360 kts 18°
2026-04-17 17:37 -34.46767 -71.31620 15543 ft 360 kts 18°
2026-04-17 17:38 -34.44425 -71.30471 15545 ft 361 kts 18°
2026-04-17 17:38 -34.42107 -71.29332 15547 ft 360 kts 18°
2026-04-17 17:38 -34.39782 -71.28190 15548 ft 361 kts 18°
2026-04-17 17:38 -34.37458 -71.27048 15541 ft 361 kts 18°
2026-04-17 17:39 -34.35116 -71.25901 15549 ft 360 kts 18°
2026-04-17 17:39 -34.32795 -71.24762 15531 ft 360 kts 18°
2026-04-17 17:39 -34.30461 -71.23618 15549 ft 360 kts 18°
2026-04-17 17:39 -34.28156 -71.22488 15546 ft 361 kts 18°
2026-04-17 17:40 -34.25834 -71.21352 15564 ft 360 kts 18°
2026-04-17 17:40 -34.23496 -71.20207 15558 ft 362 kts 18°
2026-04-17 17:40 -34.21162 -71.19065 15523 ft 360 kts 18°
2026-04-17 17:40 -34.18855 -71.17937 15543 ft 359 kts 18°
2026-04-17 17:41 -34.16529 -71.16799 15544 ft 360 kts 18°
2026-04-17 17:41 -34.14200 -71.15663 15545 ft 359 kts 18°
2026-04-17 17:41 -34.11904 -71.14541 15557 ft 360 kts 18°
2026-04-17 17:41 -34.09557 -71.13397 15524 ft 359 kts 18°
2026-04-17 17:42 -34.07233 -71.12264 15560 ft 360 kts 18°
2026-04-17 17:42 -34.04893 -71.11125 15542 ft 360 kts 18°
2026-04-17 17:42 -34.02597 -71.10005 15544 ft 359 kts 18°
2026-04-17 17:42 -34.00271 -71.08873 15560 ft 361 kts 18°
2026-04-17 17:43 -33.97945 -71.07742 15553 ft 360 kts 18°
2026-04-17 17:43 -33.95605 -71.06606 15545 ft 361 kts 18°
2026-04-17 17:43 -33.93278 -71.05474 15549 ft 359 kts 18°
2026-04-17 17:43 -33.90967 -71.04353 15544 ft 359 kts 18°
2026-04-17 17:44 -33.88649 -71.03228 15551 ft 358 kts 18°
2026-04-17 17:44 -33.86328 -71.02103 15572 ft 361 kts 18°
2026-04-17 17:44 -33.83989 -71.00969 15539 ft 359 kts 18°
2026-04-17 17:44 -33.81689 -70.99854 15570 ft 360 kts 18°
2026-04-17 17:45 -33.79348 -70.98721 15363 ft 359 kts 18°
2026-04-17 17:45 -33.77071 -70.97619 15028 ft 346 kts 18°
2026-04-17 17:45 -33.74886 -70.96561 14649 ft 334 kts 18°
2026-04-17 17:45 -33.72769 -70.95538 14278 ft 323 kts 18°
2026-04-17 17:46 -33.70699 -70.94536 13896 ft 313 kts 18°
2026-04-17 17:46 -33.68730 -70.93585 13519 ft 305 kts 18°
2026-04-17 17:46 -33.66763 -70.92636 13106 ft 297 kts 18°
2026-04-17 17:46 -33.64868 -70.91724 12711 ft 291 kts 18°
2026-04-17 17:47 -33.63009 -70.90827 12279 ft 286 kts 18°
2026-04-17 17:47 -33.61190 -70.89951 11884 ft 282 kts 18°
2026-04-17 17:47 -33.59369 -70.89075 11462 ft 278 kts 19°
2026-04-17 17:47 -33.57590 -70.88219 11035 ft 275 kts 18°
2026-04-17 17:48 -33.55823 -70.87367 10629 ft 273 kts 19°
2026-04-17 17:48 -33.54068 -70.86462 10193 ft 273 kts 20°
2026-04-17 17:48 -33.52322 -70.85561 9791 ft 273 kts 20°
2026-04-17 17:48 -33.50607 -70.84675 9632 ft 267 kts 20°
2026-04-17 17:49 -33.48879 -70.83782 9751 ft 271 kts 20°
2026-04-17 17:49 -33.47123 -70.82877 9746 ft 272 kts 21°
2026-04-17 17:49 -33.45375 -70.81937 9698 ft 273 kts 28°
2026-04-17 17:49 -33.44094 -70.80264 9746 ft 284 kts 59°
2026-04-17 17:50 -33.43019 -70.78315 9718 ft 280 kts 37°
2026-04-17 17:50 -33.41289 -70.77363 9744 ft 270 kts
2026-04-17 17:50 -33.39465 -70.77702 9753 ft 269 kts 340°
2026-04-17 17:50 -33.37704 -70.78505 9732 ft 270 kts 343°
2026-04-17 17:51 -33.35850 -70.78668 9753 ft 272 kts
2026-04-17 17:51 -33.33955 -70.78614 9735 ft 270 kts
2026-04-17 17:51 -33.32065 -70.78557 9605 ft 273 kts
2026-04-17 17:51 -33.30151 -70.78500 9350 ft 271 kts
2026-04-17 17:52 -33.28281 -70.78340 9081 ft 271 kts
2026-04-17 17:52 -33.26409 -70.78088 8799 ft 271 kts
2026-04-17 17:52 -33.24526 -70.77811 8491 ft 273 kts
2026-04-17 17:52 -33.22636 -70.77425 7979 ft 277 kts 19°
2026-04-17 17:53 -33.20961 -70.76322 7444 ft 278 kts 29°
2026-04-17 17:53 -33.19281 -70.75146 6963 ft 279 kts 29°
2026-04-17 17:53 -33.17603 -70.74034 6475 ft 278 kts 21°
2026-04-17 17:53 -33.15701 -70.73814 5940 ft 277 kts 347°
2026-04-17 17:54 -33.14028 -70.74876 5443 ft 278 kts 315°
2026-04-17 17:54 -33.13108 -70.76872 4954 ft 281 kts 282°
2026-04-17 17:54 -33.13256 -70.79184 4471 ft 282 kts 248°
2026-04-17 17:54 -33.14322 -70.81039 4605 ft 269 kts 233°